FW8756 Weather Reports


time (UTC)temp
C
wind
direction
speed
KPH
gust
KPH
rain 1hr
cm
rain 24hr
cm
rain mn
cm
humidity
%
barometer
mb
20260502152028 20 130 3.2 3.2 0.00 0.00 0.00 71 1020.0
20260502151525 19 94 1.6 3.2 0.00 0.00 0.00 73 1020.0
20260502151022 19 150 1.6 3.2 0.00 0.00 0.00 73 1019.9
20260502150520 18 2 3.2 4.8 0.00 0.00 0.00 74 1019.9
20260502130404 12 162 0.0 0.0 0.00 0.00 0.00 93 1019.0
20260502123347 11 162 0.0 0.0 0.00 0.00 0.00 94 1018.3
20260502122844 11 149 0.0 0.0 0.00 0.00 0.00 94 1018.2
20260502122340 11 147 0.0 0.0 0.00 0.00 0.00 94 1017.9
20260502121839 11 107 0.0 0.0 0.00 0.00 0.00 94 1018.0
20260502121336 10 157 0.0 0.0 0.00 0.00 0.00 94 1018.0
20260502120833 10 156 0.0 0.0 0.00 0.00 0.00 94 1018.0
20260502120329 10 154 0.0 0.0 0.00 0.00 0.00 94 1018.1
20260502115827 10 159 0.0 0.0 0.00 0.00 0.00 94 1018.2
20260502115324 10 150 0.0 0.0 0.00 0.00 0.00 94 1018.1
20260502114820 10 149 0.0 0.0 0.00 0.00 0.00 94 1018.0
20260502114317 10 150 0.0 0.0 0.00 0.00 0.00 94 1017.9
20260502113814 10 92 0.0 1.6 0.00 0.00 0.00 94 1017.7
20260502113311 10 81 0.0 0.0 0.00 0.00 0.00 94 1017.8
20260502112810 10 151 0.0 0.0 0.00 0.00 0.00 94 1017.8
20260502112306 10 115 1.6 1.6 0.00 0.00 0.00 94 1017.5
20260502111804 10 93 0.0 0.0 0.00 0.00 0.00 94 1017.3
20260502111301 10 157 0.0 0.0 0.00 0.00 0.00 94 1017.3
20260502110759 10 158 0.0 0.0 0.00 0.00 0.00 94 1017.1
20260502110256 10 143 0.0 0.0 0.00 0.00 0.00 94 1017.3
20260502105754 10 164 0.0 0.0 0.00 0.00 0.00 94 1017.0
20260502105250 10 154 0.0 0.0 0.00 0.00 0.00 94 1017.0
20260502104748 10 176 0.0 0.0 0.00 0.00 0.00 94 1017.1
20260502104245 10 147 0.0 0.0 0.00 0.00 0.00 94 1017.0
20260502103743 10 179 0.0 0.0 0.00 0.00 0.00 94 1017.1
20260502103240 10 124 0.0 0.0 0.00 0.00 0.00 94 1017.1
20260502102738 10 188 0.0 0.0 0.00 0.00 0.00 94 1016.8
20260502102233 10 156 0.0 1.6 0.00 0.00 0.00 94 1016.9
20260502101732 10 159 0.0 1.6 0.00 0.00 0.00 94 1016.8
20260502101230 10 169 1.6 1.6 0.00 0.00 0.00 94 1016.8
20260502100727 10 147 1.6 1.6 0.00 0.00 0.00 94 1016.7
20260502100226 10 147 0.0 1.6 0.00 0.00 0.00 94 1016.9
20260502091200 10 147 0.0 0.0 0.00 0.00 0.00 94 1016.2
20260502090657 10 127 0.0 0.0 0.00 0.00 0.00 93 1016.0
20260502090154 10 128 0.0 0.0 0.00 0.00 0.00 93 1016.0
20260502071055 11 150 1.6 1.6 0.00 0.00 0.00 92 1015.4
20260502070553 11 171 0.0 1.6 0.00 0.00 0.00 92 1015.4
20260502070051 11 147 0.0 0.0 0.00 0.00 0.00 92 1015.2
20260502065549 11 170 1.6 1.6 0.00 0.00 0.00 92 1015.5
20260502065047 11 359 0.0 1.6 0.00 0.00 0.00 92 1015.5
20260502064545 11 135 1.6 3.2 0.00 0.00 0.00 92 1015.5
20260502064042 11 151 0.0 0.0 0.00 0.00 0.00 92 1015.7
20260502063539 11 94 0.0 0.0 0.00 0.00 0.00 91 1015.6
20260502063037 11 140 0.0 1.6 0.00 0.00 0.00 91 1015.7
20260502062534 12 146 1.6 1.6 0.00 0.00 0.00 91 1015.6
20260502062032 12 133 0.0 1.6 0.00 0.00 0.00 91 1015.8
20260502061530 12 155 1.6 1.6 0.00 0.00 0.00 91 1015.8
20260502061027 12 198 1.6 1.6 0.00 0.00 0.00 91 1015.7
20260502060522 12 154 1.6 1.6 0.00 0.00 0.00 91 1015.4
20260502060019 12 58 1.6 3.2 0.00 0.00 0.00 91 1015.5
20260502055516 12 345 1.6 3.2 0.00 0.00 0.00 91 1015.5
20260502055015 12 133 0.0 1.6 0.00 0.00 0.00 91 1015.4
20260502054513 12 42 4.8 8.0 0.00 0.00 0.00 91 1015.4
20260502054010 12 169 3.2 3.2 0.00 0.00 0.00 91 1015.5
20260502053507 12 189 3.2 3.2 0.00 0.00 0.00 91 1015.5
20260502053005 12 347 1.6 1.6 0.00 0.00 0.00 92 1015.5
20260502052503 12 9 1.6 3.2 0.00 0.00 0.00 92 1015.7
20260502052001 12 34 1.6 3.2 0.00 0.00 0.00 92 1015.6
20260502051459 12 7 3.2 4.8 0.00 0.00 0.00 92 1015.5
20260502050955 11 19 3.2 3.2 0.00 0.00 0.00 92 1015.6
20260502050452 11 58 3.2 4.8 0.00 0.00 0.00 92 1015.5
20260502045949 11 36 8.0 14.5 0.00 0.00 0.00 93 1015.4
20260502045446 11 187 4.8 4.8 0.00 0.00 0.00 93 1015.4
20260502044943 11 199 3.2 4.8 0.00 0.00 0.00 93 1015.5
20260502044438 12 64 4.8 8.0 0.00 0.00 0.00 93 1015.3
20260502043936 12 341 3.2 4.8 0.00 0.00 0.00 94 1015.7
20260502043433 12 189 4.8 4.8 0.00 0.00 0.00 94 1015.3
20260502042933 12 177 6.4 8.0 0.00 0.00 0.00 94 1015.3
20260502042430 12 123 3.2 4.8 0.00 0.00 0.00 94 1015.5
20260502041927 12 247 1.6 3.2 0.00 0.00 0.00 94 1015.7
20260502041425 12 33 1.6 3.2 0.00 0.00 0.00 94 1015.6
20260502040922 12 233 3.2 3.2 0.00 0.00 0.00 94 1015.6
20260502040418 12 26 6.4 12.9 0.00 0.00 0.00 94 1015.5
20260502035914 12 51 3.2 3.2 0.00 0.00 0.00 95 1015.3
20260502035411 12 13 3.2 8.0 0.00 0.00 0.00 95 1015.2
20260502034909 12 167 1.6 3.2 0.00 0.00 0.00 95 1015.3
20260502034408 12 200 1.6 3.2 0.00 0.00 0.00 95 1015.5
20260502033905 12 7 1.6 3.2 0.00 0.00 0.00 95 1015.4
20260502033403 12 141 1.6 1.6 0.00 0.00 0.00 95 1015.0
20260502032859 12 139 1.6 1.6 0.00 0.00 0.00 95 1015.3
20260502032355 12 358 4.8 4.8 0.00 0.00 0.00 95 1015.2
20260502031853 12 230 1.6 3.2 0.00 0.00 0.00 95 1015.3
20260502031351 12 180 1.6 1.6 0.00 0.00 0.00 95 1015.0
20260502030849 12 182 1.6 3.2 0.00 0.00 0.00 95 1014.9
20260502030347 12 197 1.6 1.6 0.00 0.00 0.00 95 1014.9
20260502025844 12 160 4.8 8.0 0.00 0.00 0.00 95 1014.6
20260502025341 12 65 1.6 4.8 0.00 0.00 0.00 95 1014.2
20260502024839 12 199 1.6 3.2 0.00 0.00 0.00 95 1014.2
20260502024337 12 26 3.2 3.2 0.00 0.00 0.00 95 1014.1
20260502023835 12 174 4.8 4.8 0.00 0.00 0.00 95 1014.0
20260502023332 12 193 1.6 3.2 0.00 0.00 0.00 95 1013.7
20260502022830 12 285 0.0 1.6 0.00 0.00 0.00 95 1013.6
20260502022326 12 138 3.2 3.2 0.00 0.00 0.00 95 1013.7
20260502021823 12 46 0.0 0.0 0.00 0.00 0.00 95 1013.8
20260502021320 12 20 0.0 4.8 0.00 0.00 0.00 95 1013.5
20260502020817 12 111 0.0 0.0 0.00 0.00 0.00 95 1013.8
20260502020315 12 182 1.6 3.2 0.00 0.00 0.00 95 1014.0
20260502015812 12 50 0.0 1.6 0.00 0.00 0.00 95 1014.0
20260502015308 12 33 4.8 8.0 0.00 0.00 0.00 95 1013.9
20260502014806 12 212 3.2 3.2 0.00 0.00 0.00 95 1013.6
20260502014303 12 286 3.2 3.2 0.00 0.00 0.00 95 1013.5
20260502013759 12 180 4.8 4.8 0.00 0.00 0.00 95 1013.2
20260502013255 12 93 0.0 0.0 0.00 0.00 0.00 95 1013.4
20260502012751 12 165 0.0 1.6 0.00 0.00 0.00 95 1013.4
20260502012249 12 146 1.6 1.6 0.00 0.00 0.00 95 1013.4
20260502011746 12 67 0.0 0.0 0.00 0.00 0.00 95 1013.3
20260502011242 12 0 6.4 9.7 0.00 0.00 0.00 95 1013.1
20260502010740 12 261 3.2 4.8 0.00 0.00 0.00 95 1013.0
20260502010236 12 124 0.0 1.6 0.00 0.00 0.00 95 1012.8
20260502005733 12 28 1.6 4.8 0.00 0.00 0.00 95 1012.7
20260502005231 12 356 1.6 4.8 0.00 0.00 0.00 95 1012.6
20260502004727 13 220 4.8 4.8 0.00 0.00 0.00 95 1012.8
20260502004224 13 45 0.0 0.0 0.00 0.00 0.00 95 1013.2
20260502003722 13 111 0.0 1.6 0.00 0.00 0.00 95 1013.3
20260502003219 13 24 3.2 4.8 0.00 0.00 0.00 95 1013.4
20260502002714 13 97 3.2 4.8 0.00 0.00 0.00 95 1013.2
20260502002213 13 155 0.0 0.0 0.00 0.00 0.00 95 1013.0
20260502001709 13 219 1.6 3.2 0.00 0.00 0.00 95 1012.6
20260502001208 13 2 4.8 9.7 0.00 0.00 0.00 95 1012.6
20260502000704 13 27 1.6 1.6 0.00 0.00 0.00 95 1012.6
20260502000203 13 151 4.8 12.9 0.00 0.00 0.00 95 1012.6
20260501235658 13 179 1.6 3.2 0.00 0.00 0.00 95 1012.1
20260501235154 13 25 4.8 4.8 0.00 0.00 0.00 95 1012.0
20260501234650 13 123 1.6 1.6 0.00 0.00 0.00 95 1011.9
20260501234147 13 155 0.0 1.6 0.00 0.00 0.00 95 1012.3
20260501233645 13 329 3.2 4.8 0.00 0.00 0.00 94 1012.1
20260501233142 13 347 3.2 4.8 0.00 0.00 0.00 94 1012.0
20260501232638 13 15 3.2 9.7 0.00 0.00 0.00 94 1011.3
20260501232136 13 163 0.0 0.0 0.00 0.00 0.00 94 1010.7
20260501231633 13 317 3.2 4.8 0.00 0.00 0.00 94 1010.0
20260501231131 14 246 4.8 4.8 0.00 0.00 0.00 95 1010.5
20260501230630 14 11 4.8 4.8 0.00 0.00 0.00 95 1010.9
20260501230127 14 22 3.2 3.2 0.00 0.00 0.00 95 1010.8
20260501225625 14 183 3.2 3.2 0.00 0.00 0.00 95 1011.1
20260501225121 14 233 1.6 1.6 0.00 0.00 0.00 95 1010.8
20260501224618 14 124 1.6 3.2 0.00 0.00 0.00 95 1010.0
20260501224115 14 71 3.2 4.8 0.00 0.00 0.00 95 1009.7
20260501223611 14 101 4.8 8.0 0.00 0.00 0.00 95 1009.1
20260501223108 15 302 4.8 8.0 0.00 0.00 0.00 95 1008.9
20260501222604 15 40 3.2 4.8 0.00 0.00 0.00 95 1009.5
20260501222101 15 307 1.6 4.8 0.00 0.00 0.00 95 1009.7
20260501221558 15 21 3.2 4.8 0.00 0.00 0.00 95 1010.2
20260501221055 15 255 3.2 4.8 0.00 0.00 0.00 94 1009.8
20260501220553 14 21 4.8 4.8 0.00 0.00 0.00 94 1009.9
20260501220050 15 69 3.2 9.7 0.00 0.00 0.00 94 1010.6
20260501215546 15 16 3.2 3.2 0.00 0.00 0.00 94 1011.3
20260501215041 15 149 3.2 4.8 0.00 0.00 0.00 94 1011.4
20260501214537 15 45 0.0 1.6 0.00 0.00 0.00 95 1011.2
20260501214033 15 229 3.2 8.0 0.00 0.00 0.00 94 1011.1
20260501213530 15 80 3.2 4.8 0.00 0.00 0.00 94 1010.6
20260501213026 15 49 1.6 3.2 0.00 0.00 0.00 95 1010.7
20260501212522 15 158 1.6 3.2 0.00 0.00 0.00 95 1011.5
20260501212020 15 179 3.2 4.8 0.00 0.00 0.00 94 1011.0
20260501211516 15 192 3.2 4.8 0.00 0.00 0.00 95 1010.7
20260501211015 15 197 4.8 4.8 0.00 0.00 0.00 94 1010.2
20260501210510 15 352 3.2 4.8 0.00 0.00 0.00 95 1009.6
20260501210007 15 146 4.8 8.0 0.00 0.00 0.00 95 1009.3
20260501205504 15 335 3.2 4.8 0.00 0.00 0.00 94 1009.4
20260501205001 15 207 1.6 4.8 0.00 0.00 0.00 94 1010.5
20260501204457 15 182 1.6 1.6 0.00 0.00 0.00 95 1010.1
20260501203954 15 338 3.2 4.8 0.00 0.00 0.00 94 1009.5
20260501203450 15 54 3.2 3.2 0.00 0.00 0.00 94 1009.4
20260501202948 15 54 3.2 4.8 0.00 0.00 0.00 94 1009.7
20260501202444 15 147 0.0 1.6 0.00 0.00 0.00 94 1010.1
20260501201940 15 122 1.6 1.6 0.00 0.00 0.00 94 1010.2
20260501201438 15 133 3.2 3.2 0.00 0.00 0.00 94 1010.1
20260501200935 15 101 3.2 4.8 0.00 0.00 0.00 94 1010.3
20260501200432 15 143 1.6 3.2 0.00 0.00 0.00 94 1010.3
20260501195929 15 129 0.0 1.6 0.00 0.00 0.00 94 1010.7
20260501195426 15 148 1.6 1.6 0.00 0.00 0.00 94 1010.4
20260501194921 15 73 1.6 3.2 0.00 0.00 0.00 94 1010.4
20260501194417 15 199 3.2 3.2 0.00 0.00 0.00 94 1010.1
20260501193914 15 141 4.8 11.3 0.00 0.00 0.00 94 1010.2
20260501193412 16 128 3.2 4.8 0.00 0.00 0.00 94 1010.4
20260501192909 16 125 0.0 1.6 0.00 0.00 0.00 94 1010.2
20260501192406 16 36 1.6 1.6 0.00 0.00 0.00 94 1010.1
20260501191904 16 177 4.8 8.0 0.00 0.00 0.00 95 1009.5
20260501191401 16 30 3.2 9.7 0.00 0.00 0.00 95 1009.4
20260501190858 15 105 8.0 11.3 0.00 0.00 0.00 95 1009.1
20260501190353 15 359 6.4 9.7 0.00 0.00 0.00 95 1009.1
20260501185848 15 130 6.4 9.7 0.00 0.00 0.00 95 1009.3
20260501185345 15 116 14.5 20.9 0.00 0.00 0.00 95 1009.2
20260501184841 15 46 3.2 4.8 0.00 0.00 0.00 95 1008.7
20260501184337 15 70 1.6 3.2 0.00 0.00 0.00 95 1008.6
20260501183832 15 110 4.8 4.8 0.00 0.00 0.00 95 1008.2
20260501183330 15 63 4.8 11.3 0.00 0.00 0.00 95 1007.9
20260501182826 16 82 4.8 8.0 0.00 0.00 0.00 95 1007.9
20260501182323 16 42 6.4 12.9 0.00 0.00 0.00 95 1007.7
20260501181820 15 58 4.8 9.7 0.00 0.00 0.00 95 1007.3
20260501181317 15 68 4.8 8.0 0.00 0.00 0.00 95 1007.2
20260501180814 15 151 8.0 14.5 0.00 0.00 0.00 95 1007.5
20260501180310 15 146 0.0 1.6 0.00 0.00 0.00 95 1007.8
20260501175808 15 143 3.2 4.8 0.00 0.00 0.00 95 1008.6
20260501175306 16 27 0.0 0.0 0.00 0.00 0.00 95 1009.3
20260501174801 16 357 0.0 1.6 0.00 0.00 0.00 95 1009.7
20260501174258 16 51 1.6 4.8 0.00 0.00 0.00 95 1010.2
20260501173756 16 152 0.0 0.0 0.00 0.00 0.00 95 1010.4
20260501173253 16 8 3.2 8.0 0.00 0.00 0.00 95 1010.7
20260501172749 16 202 3.2 3.2 0.00 0.00 0.00 95 1010.6
20260501172244 16 192 0.0 1.6 0.00 0.00 0.00 95 1010.3
20260501171740 16 288 1.6 3.2 0.00 0.00 0.00 95 1010.3
20260501171237 16 260 1.6 4.8 0.00 0.00 0.00 95 1010.3
20260501170734 16 13 0.0 1.6 0.00 0.00 0.00 95 1010.7
20260501170231 16 188 0.0 1.6 0.00 0.00 0.00 95 1010.7
20260501165728 16 37 1.6 3.2 0.00 0.00 0.00 95 1010.8
20260501165226 16 63 1.6 3.2 0.00 0.00 0.00 95 1010.6
20260501164724 16 310 6.4 11.3 0.00 0.00 0.00 95 1010.9
20260501164220 16 125 0.0 1.6 0.00 0.00 0.00 95 1011.0
20260501163717 16 77 0.0 1.6 0.00 0.00 0.00 95 1011.5
20260501163214 16 171 0.0 0.0 0.00 0.00 0.00 95 1012.2
20260501162710 16 113 0.0 0.0 0.00 0.00 0.00 96 1012.5
20260501162206 16 187 0.0 0.0 0.00 0.00 0.00 96 1013.2
20260501161704 16 138 0.0 3.2 0.00 0.00 0.00 96 1013.1
20260501161201 16 166 0.0 1.6 0.00 0.00 0.00 96 1013.2
20260501160657 15 140 0.0 0.0 0.00 0.00 0.00 96 1013.4
20260501160155 16 43 1.6 4.8 0.00 0.00 0.00 96 1013.4
20260501155651 16 153 0.0 0.0 0.00 0.00 0.00 96 1013.2
20260501155148 15 162 0.0 0.0 0.00 0.00 0.00 96 1012.9
20260501154645 15 153 0.0 1.6 0.00 0.00 0.00 96 1013.1
20260501154143 15 182 0.0 1.6 0.00 0.00 0.00 96 1012.7